Ephrata, WA
on Saturday, November 24, 2012

Saturday
Previous Day Next Day
Daily Summary
 ActualAverageRecord
Temperature
Mean Temperature °F 34°F  
Max Temperature 43°F 41°F 65°F (1990)
Min Temperature 28°F 26°F -14°F (2010)
Degree Days
Heating Degree Days 29 31  
Month to date heating degree days 571 641  
Since 1 July heating degree days 1066 1222  
Cooling Degree Days 0 0  
Month to date cooling degree days 0 0  
Year to date cooling degree days 837 772  
Moisture
Dew Point 33°F   
Average Humidity 83    
Maximum Humidity 96    
Minimum Humidity 70    
Precipitation
Precipitation 0.00 in 0.04 in 0.81 in (1983)
Month to date precipitation 1.00 0.82  
Year to date precipitation 6.86 6.37  
Wind
Wind Speed 4 mph   
Max Wind Speed 13 mph   
Max Gust Speed 14 mph   
Visibility 7 miles   
Events     

Key: T is trace of precipitation, MM is missing value
Source: NWS Daily Summary
Time(PST)TemperatureDew PointHumidity Pressure Visibility Wind DirectionWind SpeedGust SpeedPrecipitationEvents Conditions
12:53 AM 37.0°F 35.1°F 93% 30.07 in 3.0 miles NNE 3.5 mph - N/A   Clear
1:00 AM 37.4°F 35.6°F 93% 30.04 in 3.0 miles NNE 3.5 mph - N/A   Scattered Clouds
1:18 AM 37.4°F 35.6°F 93% 30.04 in 2.5 miles NNE 4.6 mph - N/A   Mostly Cloudy
1:40 AM 37.4°F 35.6°F 93% 30.05 in 3.0 miles North 3.5 mph - N/A   Overcast
1:53 AM 37.0°F 36.0°F 96% 30.08 in 3.0 miles North 4.6 mph - N/A   Overcast
2:15 AM 37.4°F 35.6°F 93% 30.05 in 3.0 miles NNE 4.6 mph - N/A   Scattered Clouds
2:53 AM 37.0°F 35.1°F 93% 30.10 in 5.0 miles North 5.8 mph - N/A   Partly Cloudy
4:37 AM 35.6°F 33.8°F 93% 30.08 in 8.0 miles NNW 5.8 mph - N/A   Partly Cloudy
4:53 AM 35.1°F 34.0°F 96% 30.12 in 7.0 miles Calm Calm - N/A   Partly Cloudy
5:53 AM 34.0°F 32.0°F 92% 30.14 in 7.0 miles North 3.5 mph - N/A   Clear
6:53 AM 34.0°F 30.9°F 89% 30.15 in 10.0 miles North 6.9 mph - N/A   Clear
7:53 AM 34.0°F 32.0°F 92% 30.19 in 10.0 miles Calm Calm - N/A   Clear
8:53 AM 36.0°F 33.1°F 89% 30.20 in 10.0 miles WNW 4.6 mph - N/A   Mostly Cloudy
9:53 AM 39.0°F 33.1°F 79% 30.21 in 10.0 miles WNW 6.9 mph - N/A   Partly Cloudy
10:53 AM 39.0°F 36.0°F 89% 30.20 in 10.0 miles WSW 3.5 mph - N/A   Clear
11:24 AM 39.2°F 37.4°F 93% 30.17 in 10.0 miles ESE 4.6 mph - N/A   Partly Cloudy
11:53 AM 41.0°F 37.0°F 86% 30.19 in 10.0 miles Variable 3.5 mph - N/A   Partly Cloudy
12:53 PM 43.0°F 36.0°F 76% 30.18 in 10.0 miles Calm Calm - N/A   Clear
1:53 PM 42.1°F 37.0°F 82% 30.17 in 10.0 miles Variable 3.5 mph - N/A   Clear
2:53 PM 41.0°F 37.0°F 86% 30.17 in 10.0 miles South 3.5 mph - N/A   Clear
3:53 PM 39.0°F 36.0°F 89% 30.17 in 10.0 miles SSW 4.6 mph - N/A   Clear
4:53 PM 35.1°F 34.0°F 96% 30.18 in 6.0 miles Calm Calm - N/A   Clear
5:49 PM 33.8°F 30.2°F 87% 30.13 in 2.5 miles Calm Calm - N/A   Clear
5:53 PM 34.0°F 32.0°F 92% 30.17 in 3.0 miles Calm Calm - N/A   Clear
5:56 PM 33.8°F 33.8°F 100% 30.13 in 1.5 miles Calm Calm - N/A   Clear
5:59 PM 33.8°F 33.8°F 100% 30.13 in 0.8 miles Calm Calm - N/A   Mist
6:12 PM 32.0°F 30.2°F 93% 30.13 in 2.0 miles West 4.6 mph - N/A   Clear
6:20 PM 32.0°F 30.2°F 93% 30.13 in 5.0 miles Calm Calm - N/A   Clear
6:53 PM 32.0°F 30.0°F 92% 30.17 in 10.0 miles SW 5.8 mph - N/A   Clear
7:53 PM 36.0°F 28.0°F 73% 30.16 in 10.0 miles NW 3.5 mph - N/A   Clear
8:53 PM 32.0°F 27.0°F 82% 30.17 in 10.0 miles North 3.5 mph - N/A   Clear
9:53 PM 35.1°F 26.1°F 70% 30.16 in 10.0 miles Calm Calm - N/A   Clear
10:53 PM 30.0°F 27.0°F 88% 30.17 in 10.0 miles East 3.5 mph - N/A   Clear
11:53 PM 30.0°F 27.0°F 88% 30.17 in 10.0 miles North 4.6 mph - N/A   Clear
Moon Phase
Nov. 24 Nov. 28 Dec. 06 Dec. 13 Dec. 20
Sunrise:07:15 AM (PST) Moon Rise:02:10 PM (PST)11/24
Sunset:04:13 PM (PST) Moon Set:03:26 AM (PST)11/24

Copyright © 2014 The Weather Underground, Inc.